Location: Quesnel
(52.9830°N, 122.4830°W)
Time: 05:34:05
(UTC-08:00)

ISS - All Passes

Search period start: 06 February 2016 00:00
Search period end: 16 February 2016 00:00
Orbit: 399 x 408 km, 51.6° (Epoch: 06 February)

Date Brightness Start Highest point End Pass type
(mag) Time Alt. Az. Time Alt. Az. Time Alt. Az.
06 Feb - 17:28:51 10° S 17:30:58 16° SE 17:33:05 10° ESE daylight
06 Feb - 19:03:45 10° WSW 19:06:55 49° SSE 19:10:04 10° E visible
06 Feb - 20:40:00 10° W 20:43:14 70° S 20:46:28 10° E visible
06 Feb - 22:16:26 10° W 22:19:28 36° SSW 22:22:30 10° SE night (unlit)
06 Feb - 23:54:36 10° SW 23:55:14 10° SW 23:55:52 10° SSW night (unlit)
07 Feb - 16:37:56 10° SSE 16:38:40 11° SE 16:39:26 10° SE daylight
07 Feb - 18:11:25 10° SW 18:14:27 37° SSE 18:17:29 10° E visible
07 Feb - 19:47:27 10° W 19:50:41 70° S 19:53:56 10° E visible
07 Feb - 21:23:51 10° W 21:27:00 48° SSW 21:30:09 10° ESE visible
07 Feb - 23:00:51 10° WSW 23:02:57 16° SW 23:05:03 10° S night (unlit)
08 Feb - 17:19:13 10° SSW 17:22:01 26° SSE 17:24:48 10° E daylight
08 Feb - 18:54:55 10° WSW 18:58:08 64° S 19:01:23 10° E visible
08 Feb - 20:31:17 10° W 20:34:30 60° S 20:37:42 10° ESE visible
08 Feb - 22:07:55 10° W 22:10:35 23° SSW 22:13:15 10° SSE night (unlit)
09 Feb - 16:27:16 10° SSW 16:29:37 18° SE 16:31:57 10° E daylight
09 Feb - 18:02:25 10° WSW 18:05:36 53° SSE 18:08:47 10° E visible
09 Feb - 19:38:41 10° W 19:41:56 69° S 19:45:10 10° ESE visible
09 Feb - 21:15:10 10° W 21:18:08 33° SSW 21:21:06 10° SE visible
10 Feb - 15:35:50 10° SSE 15:37:15 12° SE 15:38:40 10° ESE daylight
10 Feb - 17:09:59 10° SW 17:13:04 40° SSE 17:16:10 10° E daylight
10 Feb - 18:46:06 10° W 18:49:20 71° S 18:52:35 10° E visible
10 Feb - 20:22:31 10° W 20:25:38 44° SSW 20:28:45 10° SE visible
10 Feb - 21:59:42 10° WSW 22:01:31 14° SW 22:03:20 10° S night (unlit)
11 Feb - 16:17:41 10° SW 16:20:34 29° SSE 16:23:27 10° E daylight
11 Feb - 17:53:30 10° WSW 17:56:44 66° S 17:59:58 10° E visible
11 Feb - 19:29:52 10° W 19:33:05 57° SSW 19:36:17 10° ESE visible
11 Feb - 21:06:36 10° W 21:09:07 21° SSW 21:11:38 10° SSE visible
12 Feb - 15:25:34 10° SSW 15:28:06 21° SSE 15:30:37 10° E daylight
12 Feb - 17:00:56 10° WSW 17:04:08 57° SSE 17:07:20 10° E daylight
12 Feb - 18:37:14 10° W 18:40:28 67° S 18:43:41 10° ESE visible
12 Feb - 20:13:45 10° W 20:16:39 30° SSW 20:19:32 10° SE visible
13 Feb - 14:33:51 10° S 14:35:39 14° SE 14:37:28 10° ESE daylight
13 Feb - 16:08:25 10° SW 16:11:32 44° SSE 16:14:40 10° E daylight
13 Feb - 17:44:35 10° W 17:47:49 71° S 17:51:04 10° E daylight
13 Feb - 19:21:00 10° W 19:24:06 41° SSW 19:27:10 10° SE visible
13 Feb - 20:58:29 10° WSW 20:59:55 12° SW 21:01:21 10° SSW visible
14 Feb - 15:16:00 10° SW 15:18:58 33° SSE 15:21:56 10° E daylight
14 Feb - 16:51:55 10° WSW 16:55:10 68° S 16:58:25 10° E daylight
14 Feb - 18:28:18 10° W 18:31:29 53° SSW 18:34:40 10° ESE visible
14 Feb - 20:05:07 10° W 20:07:28 19° SW 20:09:50 10° SSE visible
15 Feb - 14:23:45 10° SSW 14:26:25 23° SSE 14:29:05 10° E daylight
15 Feb - 15:59:17 10° WSW 16:02:30 60° S 16:05:43 10° E daylight
15 Feb - 17:35:36 10° W 17:38:50 64° S 17:42:03 10° ESE daylight
15 Feb - 19:12:09 10° W 19:14:58 27° SSW 19:17:46 10° SSE visible
